Scottsdale, AZ

3:36 AM MST on December 05, 2016 (GMT -0700)
Scottsdale

Weather History for KSDL - September, 2013

Change the Weather History Date:

Tuesday, September 17, 2013

  Actual Average Record
Temperature  
Mean Temperature 95 °F -  
Max Temperature 102 °F 94 °F 104 °F (2000)
Min Temperature 88 °F 73 °F 66 °F (2005)
Cooling Degree Days 30    
Growing Degree Days 45 (Base 50)    
Moisture  
Dew Point 57 °F    
Average Humidity 28    
Maximum Humidity 37    
Minimum Humidity 19    
Precipitation  
Precipitation 0.00 in - - ()
Sea Level Pressure  
Sea Level Pressure 29.64 in    
Wind  
Wind Speed 6 mph (ESE)    
Max Wind Speed 13 mph    
Max Gust Speed 21 mph    
Visibility 10 miles    
Events      
Averages and records for this station are not official NWS values.
T = Trace of Precipitation, MM = Missing Value Source: NWS Daily Summary

Daily Weather History Graph

Daily Weather History Graph

Search for Another Location

Airport or City:

Trip Planner

Search our weather history database for the weather conditions in past years. The results will help you decide how hot, cold, wet, or windy it might be!

Date:

Astronomy

Sep. 17, 2013 Rise Set
Actual Time 6:12 AM MST 6:30 PM MST
Civil Twilight 5:47 AM MST 6:55 PM MST
Nautical Twilight 5:18 AM MST 7:24 PM MST
Astronomical Twilight 4:48 AM MST 7:54 PM MST
Moon 5:18 PM MST (9/17) 4:15 AM MST (9/17)
Length of Visible Light 13h 08m
Length of Day
12h 18m
Waxing Gibbous, 96% of the Moon is Illuminated
Sep 17
Waxing Gibbous
Sep 19
Full
Sep 26
Last Quarter
Oct 4
New
Oct 11
First Quarter

Hourly Weather History & Observations

Time (MST) Temp. Heat Index Dew Point Humidity Pressure Visibility Wind Dir Wind Speed Gust Speed Precip Events Conditions
12:53 AM 93.0 °F 91.4 °F 55.9 °F 29% 29.69 in 10.0 mi ESE 6.9 mph - N/A   Clear
1:53 AM 91.0 °F 89.7 °F 57.0 °F 32% 29.70 in 10.0 mi East 6.9 mph - N/A   Partly Cloudy
2:53 AM 91.0 °F 89.7 °F 57.0 °F 32% 29.68 in 10.0 mi ESE 6.9 mph - N/A   Mostly Cloudy
3:53 AM 90.0 °F 88.6 °F 57.0 °F 33% 29.68 in 10.0 mi East 6.9 mph - N/A   Scattered Clouds
4:53 AM 89.1 °F 88.0 °F 57.9 °F 35% 29.69 in 10.0 mi Variable 3.5 mph - N/A   Partly Cloudy
5:53 AM 89.1 °F 88.0 °F 57.9 °F 35% 29.70 in 10.0 mi East 5.8 mph - N/A   Clear
6:53 AM 88.0 °F 87.1 °F 59.0 °F 37% 29.72 in 10.0 mi East 3.5 mph - N/A   Clear
7:53 AM 90.0 °F 89.1 °F 59.0 °F 35% 29.73 in 10.0 mi East 10.4 mph - N/A   Clear
8:53 AM 91.9 °F 91.2 °F 59.0 °F 33% 29.73 in 10.0 mi ESE 11.5 mph - N/A   Clear
9:53 AM 93.9 °F 92.9 °F 57.9 °F 30% 29.72 in 10.0 mi East 12.7 mph 19.6 mph N/A   Clear
10:53 AM 97.0 °F 96.5 °F 59.0 °F 28% 29.71 in 10.0 mi East 12.7 mph 19.6 mph N/A   Clear
11:53 AM 98.1 °F 97.7 °F 59.0 °F 27% 29.68 in 10.0 mi ESE 6.9 mph - N/A   Clear
12:53 PM 100.9 °F 100.0 °F 57.0 °F 23% 29.64 in 10.0 mi SSE 8.1 mph 18.4 mph N/A   Clear
1:53 PM 100.9 °F 100.0 °F 57.0 °F 23% 29.62 in 10.0 mi South 4.6 mph 20.7 mph N/A   Clear
2:53 PM 102.0 °F 101.1 °F 57.0 °F 22% 29.59 in 10.0 mi Variable 5.8 mph - N/A   Clear
3:53 PM 102.9 °F 102.4 °F 57.0 °F 22% 29.57 in 10.0 mi Variable 6.9 mph - N/A   Clear
4:53 PM 102.9 °F 100.9 °F 53.1 °F 19% 29.56 in 10.0 mi SW 4.6 mph - N/A   Clear
5:53 PM 102.0 °F 100.6 °F 55.0 °F 21% 29.54 in 10.0 mi Calm Calm - N/A   Partly Cloudy
6:53 PM 100.0 °F 98.3 °F 55.0 °F 22% 29.54 in 10.0 mi Calm Calm - N/A   Scattered Clouds
7:53 PM 99.0 °F 97.7 °F 55.9 °F 24% 29.56 in 10.0 mi Calm Calm - N/A   Partly Cloudy
8:53 PM 97.0 °F 95.7 °F 57.0 °F 26% 29.57 in 10.0 mi Calm Calm - N/A   Partly Cloudy
9:53 PM 95.0 °F 94.0 °F 57.9 °F 29% 29.58 in 10.0 mi Calm Calm - N/A   Scattered Clouds
10:53 PM 93.9 °F - 52.0 °F 24% 29.60 in 10.0 mi West 4.6 mph - N/A   Overcast
11:53 PM 93.0 °F - 50.0 °F 23% 29.61 in 10.0 mi Calm Calm - N/A   Partly Cloudy